TUI495 LGAV-LGSK

Flight info

Callsign TUI495
Flight time 0h 29m
Altitude 14000
Route ROPOX1E ROPOX M749 SIGFO SIGFO1C
Aircraft A320/M-SDE3FGHIRWY/LB1

Departure

Time 2026-04-18 09:44
Airport Athens Eleftherios Venizelos International Airport (LGAV)

Arrival

Time 2026-04-18 10:13
Airport Skiathos Island National Airport (LGSK)
Time Latitude Longitude Altitude Speed Heading
2026-04-18 09:26 37.93001 23.94386 288 ft 0 kts 40°
2026-04-18 09:35 37.92998 23.94383 288 ft 2 kts 40°
2026-04-18 09:35 37.92985 23.94369 288 ft 2 kts 40°
2026-04-18 09:35 37.92972 23.94356 294 ft 2 kts 40°
2026-04-18 09:36 37.92960 23.94342 291 ft 2 kts 40°
2026-04-18 09:36 37.92947 23.94328 293 ft 2 kts 40°
2026-04-18 09:36 37.92936 23.94313 292 ft 2 kts 94°
2026-04-18 09:36 37.92936 23.94304 291 ft 0 kts 123°
2026-04-18 09:40 37.92928 23.94316 294 ft 5 kts 134°
2026-04-18 09:40 37.92888 23.94350 289 ft 8 kts 136°
2026-04-18 09:40 37.92852 23.94411 292 ft 9 kts 126°
2026-04-18 09:41 37.92795 23.94454 292 ft 10 kts 178°
2026-04-18 09:41 37.92730 23.94405 292 ft 12 kts 217°
2026-04-18 09:41 37.92657 23.94336 294 ft 14 kts 218°
2026-04-18 09:41 37.92574 23.94282 297 ft 11 kts 174°
2026-04-18 09:42 37.92569 23.94285 296 ft 0 kts 160°
2026-04-18 09:42 37.92558 23.94295 292 ft 5 kts 143°
2026-04-18 09:43 37.92517 23.94361 294 ft 14 kts 126°
2026-04-18 09:43 37.92530 23.94495 293 ft 27 kts 39°
2026-04-18 09:43 37.92829 23.94776 286 ft 83 kts 37°
2026-04-18 09:43 37.93419 23.95335 283 ft 128 kts 37°
2026-04-18 09:44 37.94241 23.96111 304 ft 167 kts 36°
2026-04-18 09:44 37.95221 23.97023 693 ft 182 kts 37°
2026-04-18 09:44 37.96251 23.98003 1344 ft 194 kts 34°
2026-04-18 09:44 37.97380 23.99091 1906 ft 211 kts 34°
2026-04-18 09:45 37.98560 24.00236 2820 ft 215 kts 35°
2026-04-18 09:45 37.99747 24.01387 3814 ft 215 kts 35°
2026-04-18 09:45 38.00938 24.02537 4751 ft 217 kts 34°
2026-04-18 09:45 38.02146 24.03699 5632 ft 220 kts 35°
2026-04-18 09:46 38.03380 24.04886 6478 ft 224 kts 35°
2026-04-18 09:46 38.04660 24.06070 7141 ft 235 kts 27°
2026-04-18 09:46 38.06258 24.06621 7734 ft 248 kts
2026-04-18 09:46 38.07946 24.06054 8480 ft 260 kts 337°
2026-04-18 09:47 38.09611 24.05086 9218 ft 265 kts 342°
2026-04-18 09:47 38.11339 24.04271 10035 ft 266 kts 343°
2026-04-18 09:47 38.13142 24.03486 10420 ft 285 kts 343°
2026-04-18 09:47 38.15093 24.02645 10600 ft 308 kts 343°
2026-04-18 09:48 38.17180 24.01728 10871 ft 325 kts 342°
2026-04-18 09:48 38.19358 24.00745 11335 ft 334 kts 341°
2026-04-18 09:48 38.21566 23.99723 11894 ft 343 kts 340°
2026-04-18 09:48 38.23822 23.98659 12533 ft 346 kts 339°
2026-04-18 09:49 38.26082 23.97587 13253 ft 349 kts 339°
2026-04-18 09:49 38.28339 23.96516 13812 ft 351 kts 338°
2026-04-18 09:49 38.30630 23.95429 13938 ft 351 kts 339°
2026-04-18 09:49 38.32930 23.94341 13969 ft 353 kts 339°
2026-04-18 09:50 38.35241 23.93251 13971 ft 355 kts 339°
2026-04-18 09:50 38.37574 23.92151 13974 ft 356 kts 339°
2026-04-18 09:50 38.39891 23.91062 13980 ft 356 kts 340°
2026-04-18 09:50 38.42195 23.89951 13972 ft 353 kts 336°
2026-04-18 09:51 38.44414 23.88611 13978 ft 354 kts 334°
2026-04-18 09:51 38.46644 23.87221 13976 ft 355 kts 334°
2026-04-18 09:51 38.48893 23.85915 13996 ft 357 kts 336°
2026-04-18 09:51 38.51194 23.84710 13987 ft 357 kts 338°
2026-04-18 09:52 38.53520 23.83596 13989 ft 356 kts 340°
2026-04-18 09:52 38.55855 23.82540 13986 ft 356 kts 340°
2026-04-18 09:52 38.58188 23.81509 13984 ft 354 kts 341°
2026-04-18 09:52 38.60522 23.80480 13981 ft 355 kts 340°
2026-04-18 09:53 38.62861 23.79444 13982 ft 357 kts 340°
2026-04-18 09:53 38.65219 23.78393 13987 ft 359 kts 340°
2026-04-18 09:53 38.67556 23.77343 13988 ft 356 kts 340°
2026-04-18 09:53 38.69879 23.76284 13993 ft 352 kts 340°
2026-04-18 09:54 38.72189 23.75225 13989 ft 352 kts 340°
2026-04-18 09:54 38.74506 23.74163 13991 ft 351 kts 340°
2026-04-18 09:54 38.76812 23.73108 13993 ft 353 kts 340°
2026-04-18 09:54 38.79127 23.72050 13998 ft 352 kts 340°
2026-04-18 09:55 38.81408 23.71011 13984 ft 340 kts 340°
2026-04-18 09:55 38.83554 23.70032 13876 ft 324 kts 341°
2026-04-18 09:55 38.85634 23.69082 13758 ft 311 kts 341°
2026-04-18 09:55 38.87660 23.68157 13619 ft 299 kts 341°
2026-04-18 09:56 38.89533 23.67297 13493 ft 280 kts 341°
2026-04-18 09:56 38.91300 23.66486 13352 ft 260 kts 341°
2026-04-18 09:56 38.92963 23.65725 13067 ft 248 kts 341°
2026-04-18 09:56 38.94596 23.65085 12590 ft 244 kts 350°
2026-04-18 09:57 38.96273 23.64814 12073 ft 242 kts 354°
2026-04-18 09:57 38.97944 23.64573 11583 ft 241 kts 354°
2026-04-18 09:57 38.99601 23.64329 11101 ft 239 kts 354°
2026-04-18 09:57 39.01243 23.64084 10637 ft 237 kts 354°
2026-04-18 09:58 39.02876 23.63843 10175 ft 235 kts 354°
2026-04-18 09:58 39.04493 23.63606 9702 ft 233 kts 355°
2026-04-18 09:58 39.06105 23.63366 9195 ft 232 kts 354°
2026-04-18 09:58 39.07697 23.63128 8710 ft 230 kts 355°
2026-04-18 09:59 39.09282 23.62895 8209 ft 228 kts 354°
2026-04-18 09:59 39.10826 23.62668 7978 ft 216 kts 354°
2026-04-18 09:59 39.12284 23.62449 7692 ft 208 kts 354°
2026-04-18 10:00 39.14985 23.62049 7183 ft 185 kts 354°
2026-04-18 10:00 39.16253 23.61863 6766 ft 181 kts 354°
2026-04-18 10:00 39.17503 23.61677 6277 ft 180 kts 354°
2026-04-18 10:00 39.18740 23.61655 5782 ft 178 kts 15°
2026-04-18 10:01 39.19747 23.62500 5364 ft 178 kts 50°
2026-04-18 10:01 39.20141 23.64003 4883 ft 185 kts 87°
2026-04-18 10:01 39.19675 23.65557 4393 ft 195 kts 128°
2026-04-18 10:01 39.18469 23.66348 4026 ft 202 kts 172°
2026-04-18 10:02 39.17042 23.66371 4022 ft 209 kts 185°
2026-04-18 10:02 39.15781 23.65545 3889 ft 204 kts 233°
2026-04-18 10:02 39.15140 23.63960 3492 ft 202 kts 251°
2026-04-18 10:02 39.14393 23.62389 3061 ft 207 kts 243°
2026-04-18 10:03 39.14147 23.60671 2695 ft 191 kts 290°
2026-04-18 10:03 39.14902 23.59436 2311 ft 173 kts 341°
2026-04-18 10:03 39.16043 23.59405 2032 ft 166 kts 15°
2026-04-18 10:03 39.17187 23.59752 2007 ft 171 kts 15°
2026-04-18 10:04 39.18347 23.60096 2007 ft 171 kts 12°
2026-04-18 10:04 39.19499 23.59769 2008 ft 182 kts 325°
2026-04-18 10:04 39.20044 23.58350 1990 ft 183 kts 273°
2026-04-18 10:04 39.19510 23.56915 2034 ft 185 kts 218°
2026-04-18 10:05 39.18321 23.56494 2016 ft 179 kts 174°
2026-04-18 10:05 39.17085 23.56571 2005 ft 177 kts 173°
2026-04-18 10:05 39.15856 23.56647 2006 ft 176 kts 174°
2026-04-18 10:05 39.14629 23.56722 2009 ft 176 kts 174°
2026-04-18 10:06 39.13413 23.56795 2010 ft 174 kts 173°
2026-04-18 10:06 39.12235 23.56862 1999 ft 164 kts 173°
2026-04-18 10:06 39.11118 23.56858 1999 ft 160 kts 185°
2026-04-18 10:06 39.10067 23.56366 2010 ft 161 kts 206°
2026-04-18 10:07 39.09077 23.55704 2014 ft 160 kts 205°
2026-04-18 10:07 39.08087 23.55059 2007 ft 160 kts 204°
2026-04-18 10:07 39.07101 23.54422 2012 ft 157 kts 205°
2026-04-18 10:07 39.06126 23.53791 2011 ft 157 kts 205°
2026-04-18 10:08 39.05152 23.53159 1895 ft 155 kts 205°
2026-04-18 10:08 39.04218 23.52550 1621 ft 150 kts 205°
2026-04-18 10:08 39.03277 23.51940 1618 ft 152 kts 204°
2026-04-18 10:08 39.02443 23.51103 1613 ft 154 kts 233°
2026-04-18 10:09 39.02005 23.49866 1607 ft 153 kts 263°
2026-04-18 10:09 39.02062 23.48519 1620 ft 150 kts 291°
2026-04-18 10:09 39.02567 23.47378 1615 ft 147 kts 317°
2026-04-18 10:09 39.03391 23.46655 1616 ft 142 kts 343°
2026-04-18 10:10 39.04348 23.46466 1612 ft 139 kts
2026-04-18 10:10 39.05283 23.46706 1617 ft 136 kts 15°
2026-04-18 10:10 39.06209 23.46974 1614 ft 136 kts 16°
2026-04-18 10:10 39.07140 23.47244 1611 ft 138 kts 15°
2026-04-18 10:11 39.08074 23.47515 1612 ft 138 kts 15°
2026-04-18 10:11 39.09012 23.47782 1601 ft 138 kts 14°
2026-04-18 10:11 39.09967 23.47974 1510 ft 139 kts 10°
2026-04-18 10:11 39.10930 23.48117 1346 ft 139 kts
2026-04-18 10:12 39.11886 23.48234 1141 ft 137 kts
2026-04-18 10:12 39.12820 23.48381 994 ft 134 kts 11°
2026-04-18 10:12 39.13743 23.48601 815 ft 135 kts 16°
2026-04-18 10:12 39.14653 23.48956 574 ft 135 kts 18°
2026-04-18 10:13 39.15545 23.49370 369 ft 137 kts 19°
2026-04-18 10:13 39.16439 23.49782 175 ft 136 kts 19°
2026-04-18 10:13 39.17328 23.50186 30 ft 134 kts 20°
2026-04-18 10:13 39.17800 23.50399 40 ft 19 kts 18°
2026-04-18 10:14 39.17902 23.50428 41 ft 15 kts 350°
2026-04-18 10:14 39.17923 23.50354 40 ft 9 kts 288°
2026-04-18 10:14 39.17938 23.50302 44 ft 2 kts 290°
2026-04-18 10:14 39.17940 23.50295 47 ft 2 kts 290°
2026-04-18 10:15 39.17944 23.50283 50 ft 3 kts 290°
2026-04-18 10:15 39.17950 23.50262 52 ft 0 kts 290°
2026-04-18 10:15 39.17951 23.50258 51 ft 0 kts 290°
2026-04-18 10:15 39.17954 23.50248 52 ft 0 kts 290°
2026-04-18 10:16 39.17954 23.50246 52 ft 0 kts 290°